Weather reports worldwide

Advertisment
Limoges, France (7434): temperature & dewpoint: 20.05.2019 02:00:00 - 26.05.2019 02:00:00 (CEST)Limoges, France (7434): temperature 5cm: 20.05.2019 02:00:00 - 26.05.2019 02:00:00 (CEST)Limoges, France (7434): temperature -20cm & temperature -100cm: 20.05.2019 02:00:00 - 26.05.2019 02:00:00 (CEST)Limoges, France (7434): wind speed & gusts: 20.05.2019 02:00:00 - 26.05.2019 02:00:00 (CEST)Limoges, France (7434): wind direction: 20.05.2019 02:00:00 - 26.05.2019 02:00:00 (CEST)Limoges, France (7434): reduced air pressure: 20.05.2019 02:00:00 - 26.05.2019 02:00:00 (CEST)Limoges, France (7434): visibility: 20.05.2019 02:00:00 - 26.05.2019 02:00:00 (CEST)Limoges, France (7434): sunshine duration: 20.05.2019 02:00:00 - 26.05.2019 02:00:00 (CEST)Limoges, France (7434): precipitation: 20.05.2019 02:00:00 - 26.05.2019 02:00:00 (CEST)
Date & Time tt [°C] td [°C] tt 5cm [°C] tt -20cm [°C] tt -100cm [°C] ff [km/h] ff [kn] fx [km/h] fx [kn] dd ppp [hPa] vv [km] sd [min] rr [mm]
26.05.2019 02:00:00 - - - - - - - - - - - - - -
26.05.2019 01:00:00 12,7 10,9 11,6 16,9 13,9 13 7 21 11 WNW 1020,9 23 0 0,0
26.05.2019 00:00:00 13,7 10,7 12,3 16,9 13,8 10 5 19 11 W 1021,1 33 0 0,0
25.05.2019 23:00:00 14,4 10,6 12,8 16,9 13,9 9 5 16 9 WNW 1020,9 38 0 0,0
25.05.2019 22:00:00 15,4 10,6 13,5 16,8 13,8 6 3 20 11 WNW 1020,2 41 1 0,0
25.05.2019 21:00:00 16,8 10,6 15,8 16,7 13,8 11 6 32 17 WNW 1019,3 43 41 0,0
25.05.2019 20:00:00 17,4 10,5 17,1 16,6 13,8 13 7 29 16 NW 1018,8 45 31 0,0
25.05.2019 19:00:00 18,0 10,6 17,7 16,4 13,8 11 6 30 16 WNW 1018,5 45 14 0,0
25.05.2019 18:00:00 18,0 10,4 19,3 16,3 13,8 11 6 31 17 NNW 1018,5 41 38 0,0
25.05.2019 17:00:00 19,1 10,9 21,2 16,2 13,7 14 8 30 16 N 1018,3 40 52 0,0
25.05.2019 16:00:00 18,8 11,1 22,0 16,1 13,7 16 9 32 17 NNW 1018,3 23 52 0,0
25.05.2019 15:00:00 18,7 12,0 21,0 16,0 13,8 16 9 39 21 NNW 1018,9 19 23 0,0
25.05.2019 14:00:00 16,8 10,9 20,5 16,0 13,7 17 9 35 19 NW 1019,4 21 39 0,0
25.05.2019 13:00:00 16,5 10,8 19,1 16,0 13,7 16 8 31 17 NW 1019,8 17 34 0,0
25.05.2019 12:00:00 15,4 11,4 22,3 16,0 13,7 14 8 25 14 NW 1019,8 20 60 0,0
25.05.2019 11:00:00 14,9 11,1 22,8 16,0 13,7 14 7 23 12 WNW 1019,8 19 58 0,0
25.05.2019 10:00:00 13,8 10,8 19,1 16,1 13,7 5 3 21 12 N 1019,6 19 60 0,0
25.05.2019 09:00:00 11,8 9,7 16,4 16,2 13,7 12 7 19 10 NNW 1019,6 20 60 0,0
25.05.2019 08:00:00 10,7 9,6 9,3 16,3 13,7 9 5 19 10 N 1019,4 10 34 0,0
25.05.2019 07:00:00 9,8 8,6 8,5 16,3 13,7 8 4 24 13 N 1019,4 20 0 0,0
25.05.2019 06:00:00 10,5 8,9 9,6 16,4 13,7 15 8 31 17 N 1018,6 26 0 0,0
25.05.2019 05:00:00 10,7 9,1 10,0 16,5 13,7 18 10 32 17 NNW 1018,6 31 0 0,0
25.05.2019 04:00:00 11,4 10,0 10,7 16,5 13,6 15 8 26 14 NNW 1018,5 25 0 0,0
25.05.2019 03:00:00 12,3 10,9 10,9 16,6 13,6 14 8 24 13 NNW 1018,3 26 0 0,0
25.05.2019 02:00:00 12,7 11,8 10,0 16,6 13,6 8 5 13 7 WNW 1018,3 14 0 0,0
25.05.2019 01:00:00 13,5 11,7 11,5 16,6 13,6 8 4 10 5 WNW 1018,4 14 0 0,0
25.05.2019 00:00:00 14,4 11,7 13,4 16,6 13,6 5 3 8 4 NW 1018,1 35 0 0,0
24.05.2019 23:00:00 14,7 11,5 13,5 16,6 13,6 5 3 11 6 NNW 1018,1 46 0 0,0
24.05.2019 22:00:00 14,8 11,4 13,4 16,5 13,6 5 3 21 11 N 1017,5 47 4 0,0
24.05.2019 21:00:00 16,2 10,1 15,9 16,5 13,6 8 5 27 14 N 1016,7 58 12 0,0
24.05.2019 20:00:00 16,6 12,3 16,9 16,4 13,6 10 5 29 16 NW 1016,0 48 0 0,0
24.05.2019 19:00:00 16,6 11,9 17,1 16,3 13,6 15 8 33 18 NW 1016,0 34 0 0,0
24.05.2019 18:00:00 18,8 10,6 19,6 16,2 13,5 13 7 25 14 NW 1015,6 47 28 0,0
24.05.2019 17:00:00 19,9 9,7 22,8 16,1 13,5 16 9 29 15 NW 1015,5 23 46 0,0
24.05.2019 16:00:00 18,3 11,4 21,5 16,0 13,5 16 9 37 20 N 1015,8 24 35 0,0
24.05.2019 15:00:00 18,3 11,8 22,0 16,0 13,5 15 8 32 18 NNW 1016,2 25 0 0,0
24.05.2019 14:00:00 18,7 11,0 23,3 15,9 13,5 16 9 30 16 NNW 1016,3 25 24 0,0
24.05.2019 13:00:00 18,1 10,5 23,7 15,9 13,5 15 8 37 20 NW 1016,5 26 34 0,0
24.05.2019 12:00:00 17,0 11,9 21,5 15,9 13,5 7 4 16 9 NNW 1016,8 20 10 0,0
24.05.2019 11:00:00 15,4 11,2 18,7 16,0 13,4 10 6 20 11 W 1017,0 24 20 0,0
24.05.2019 10:00:00 14,3 11,4 18,3 16,0 13,4 8 5 13 7 WSW 1017,1 16 12 0,0
24.05.2019 09:00:00 14,1 11,8 14,5 16,1 13,4 4 2 10 5 W 1017,0 16 28 0,0
24.05.2019 08:00:00 12,8 11,5 13,4 16,1 13,4 3 1 9 5 NW 1016,7 12 27 0,0
24.05.2019 07:00:00 12,3 11,4 11,0 16,2 13,4 4 2 21 11 NE 1016,5 7 21 0,0
24.05.2019 06:00:00 12,2 10,9 11,1 16,2 13,4 16 9 23 12 W 1016,3 11 0 0,0
24.05.2019 05:00:00 12,9 10,8 11,9 16,3 13,4 18 10 24 13 WNW 1016,2 17 0 0,0
24.05.2019 04:00:00 13,4 10,4 12,3 16,3 13,4 16 9 23 12 W 1016,5 26 0 0,0
24.05.2019 03:00:00 14,0 10,4 13,0 16,4 13,4 14 8 20 11 W 1016,5 30 0 0,0
24.05.2019 02:00:00 14,5 10,1 13,5 16,3 13,4 12 6 24 13 W 1016,9 41 0 0,0
24.05.2019 01:00:00 16,0 7,7 13,6 16,3 13,4 3 1 8 4 W 1016,6 60 0 0,0
24.05.2019 00:00:00 17,0 7,9 14,6 16,3 13,4 4 2 7 4 NNE 1016,5 60 0 0,0
23.05.2019 23:00:00 17,5 8,1 15,3 16,2 13,3 5 3 10 6 NNE 1016,5 56 0 0,0
23.05.2019 22:00:00 17,3 8,7 14,9 16,1 13,3 5 3 12 6 N 1016,4 59 0 0,0
23.05.2019 21:00:00 18,2 9,0 16,8 16,0 13,3 6 4 14 8 NNW 1016,2 58 32 0,0
23.05.2019 20:00:00 19,7 9,3 19,6 15,9 13,3 9 5 19 11 NW 1015,6 59 0 0,0
23.05.2019 19:00:00 20,7 8,7 21,7 15,7 13,3 9 5 20 11 NW 1015,3 52 4 0,0
23.05.2019 18:00:00 22,3 6,1 25,7 15,5 13,3 5 3 19 11 WNW 1015,1 43 60 0,0
23.05.2019 17:00:00 22,2 5,6 26,5 15,3 13,3 8 5 22 12 WSW 1015,4 49 54 0,0
23.05.2019 16:00:00 21,9 5,7 29,2 15,2 13,3 9 5 21 11 SW 1015,6 56 60 0,0
23.05.2019 15:00:00 21,8 6,5 28,1 15,1 13,3 6 4 22 12 WSW 1015,9 49 50 0,0
23.05.2019 14:00:00 21,2 6,3 30,0 15,0 13,2 5 3 22 12 NNE 1016,3 51 58 0,0
23.05.2019 13:00:00 20,7 5,9 27,3 15,0 13,3 5 3 16 9 SW 1016,8 31 60 0,0
23.05.2019 12:00:00 19,8 6,2 25,0 15,0 13,2 5 3 19 10 NW 1017,2 42 60 0,0
23.05.2019 11:00:00 19,3 7,1 26,4 15,0 13,3 6 4 21 11 E 1017,5 40 60 0,0
23.05.2019 10:00:00 18,4 7,5 21,7 15,1 13,2 8 4 14 8 E 1017,8 32 60 0,0
23.05.2019 09:00:00 15,7 6,9 15,8 15,1 13,2 7 4 14 8 ENE 1018,0 26 45 0,0
23.05.2019 08:00:00 14,0 7,7 12,7 15,2 13,2 8 4 12 6 NE 1018,1 48 39 0,0
23.05.2019 07:00:00 12,4 6,7 10,2 15,3 13,2 8 4 14 7 NE 1018,1 47 19 0,0
23.05.2019 06:00:00 12,2 6,5 10,2 15,3 13,2 7 4 10 6 NE 1018,2 50 0 0,0
23.05.2019 05:00:00 12,4 5,5 10,6 15,4 13,2 7 4 11 6 NE 1018,3 60 0 0,0
23.05.2019 04:00:00 13,4 4,8 11,1 15,4 13,2 5 3 14 8 ENE 1018,5 60 0 0,0
23.05.2019 03:00:00 13,6 5,0 11,7 15,5 13,2 10 6 15 8 NE 1018,5 60 0 0,0
23.05.2019 02:00:00 13,9 5,5 12,0 15,5 13,2 10 6 17 9 NE 1018,8 60 0 0,0
23.05.2019 01:00:00 14,5 5,8 12,7 15,5 13,2 10 6 18 10 NE 1018,9 60 0 0,0
23.05.2019 00:00:00 15,2 6,2 13,8 15,5 13,2 12 7 18 10 NE 1019,0 60 0 0,0
22.05.2019 23:00:00 16,0 6,7 14,4 15,4 13,2 13 7 19 10 NNE 1019,1 59 0 0,0
22.05.2019 22:00:00 16,6 7,0 14,4 15,3 13,2 11 6 19 11 NNE 1018,8 56 2 0,0
22.05.2019 21:00:00 18,2 7,3 16,2 15,2 13,1 9 5 21 12 N 1018,3 60 50 0,0
22.05.2019 20:00:00 19,8 7,2 19,9 15,1 13,2 10 5 24 13 N 1017,9 52 60 0,0
22.05.2019 19:00:00 20,0 7,4 20,5 14,8 13,2 12 7 32 18 N 1017,9 44 49 0,0
22.05.2019 18:00:00 21,2 8,5 23,2 14,7 13,2 17 9 34 19 NNE 1017,8 46 58 0,0
22.05.2019 17:00:00 21,0 7,2 21,9 14,6 13,2 12 6 25 13 N 1018,1 47 36 0,0
22.05.2019 16:00:00 20,9 7,8 25,3 14,4 13,1 12 7 23 12 NNE 1018,3 45 51 0,0
22.05.2019 15:00:00 20,7 7,7 22,8 14,3 13,1 10 6 20 11 NE 1018,6 42 35 0,0
22.05.2019 14:00:00 20,5 8,5 20,1 14,3 13,1 8 4 20 11 ENE 1018,7 44 22 0,0
22.05.2019 13:00:00 18,7 8,6 21,1 14,2 13,1 11 6 22 12 N 1019,4 53 44 0,0
22.05.2019 12:00:00 18,4 9,2 24,3 14,2 13,1 8 5 19 10 N 1019,6 39 58 0,0
22.05.2019 11:00:00 17,5 9,6 22,1 14,3 13,1 8 4 19 10 ENE 1019,7 20 60 0,0
22.05.2019 10:00:00 15,6 9,3 20,3 14,3 13,1 11 6 18 10 E 1019,9 23 60 0,0
22.05.2019 09:00:00 14,1 9,5 15,6 14,4 13,1 11 6 18 10 E 1020,1 20 60 0,0
22.05.2019 08:00:00 11,4 8,6 10,3 14,4 13,1 5 3 9 5 ENE 1020,4 24 38 0,0
22.05.2019 07:00:00 10,7 7,9 8,7 14,5 13,1 8 5 10 5 NE 1020,4 14 3 0,0
22.05.2019 06:00:00 10,5 7,7 7,0 14,6 13,1 5 3 8 4 NE 1020,0 20 0 0,0
22.05.2019 05:00:00 10,6 8,0 8,5 14,6 13,1 3 2 8 5 NE 1020,0 29 0 0,0
22.05.2019 04:00:00 10,7 8,3 8,8 14,6 13,1 5 3 8 4 NE 1019,8 21 0 0,0
22.05.2019 03:00:00 11,7 8,0 10,0 14,6 13,1 6 3 10 6 NE 1019,6 38 0 0,0
22.05.2019 02:00:00 12,8 8,1 11,0 14,7 13,1 8 4 18 10 NNE 1019,7 39 0 0,0
22.05.2019 01:00:00 12,7 8,8 11,2 14,7 13,1 10 6 18 10 NNE 1019,6 37 0 0,0
22.05.2019 00:00:00 13,6 9,4 12,5 14,6 13,1 8 5 20 11 NNE 1019,7 36 0 0,0
21.05.2019 23:00:00 13,8 9,0 11,3 14,6 13,1 8 4 14 8 N 1019,7 49 0 0,0
21.05.2019 22:00:00 14,0 9,0 11,4 14,5 13,0 9 5 14 8 N 1019,1 45 1 0,0
21.05.2019 21:00:00 15,2 9,3 14,0 14,5 13,1 10 5 18 10 NNW 1018,3 52 19 0,0
21.05.2019 20:00:00 15,3 10,5 15,3 14,4 13,1 10 5 16 9 NNW 1017,9 34 0 0,0
21.05.2019 19:00:00 15,7 9,8 15,8 14,3 13,1 6 3 26 14 N 1017,6 50 3 0,0
21.05.2019 18:00:00 17,5 10,6 17,3 14,1 13,0 13 7 25 13 N 1017,3 37 22 0,0
21.05.2019 17:00:00 16,3 10,6 17,8 14,0 13,0 14 8 32 18 WNW 1017,6 38 14 0,0
21.05.2019 16:00:00 17,2 9,4 15,0 13,9 13,0 6 4 16 9 E 1017,5 27 42 0,2
21.05.2019 15:00:00 15,5 11,3 15,2 13,8 13,0 14 7 28 15 N 1017,8 6 0 0,2
21.05.2019 14:00:00 16,2 10,3 16,6 13,8 13,0 14 8 25 14 N 1017,6 20 36 0,0
21.05.2019 13:00:00 16,2 10,5 19,8 13,8 13,0 11 6 22 12 NNW 1017,7 18 19 0,0
21.05.2019 12:00:00 13,6 12,0 18,7 13,8 13,0 10 6 16 9 SW 1018,1 8 0 0,0
21.05.2019 11:00:00 11,5 11,0 15,0 13,8 13,0 7 4 15 8 SW 1018,4 0,5 1 0,0
21.05.2019 10:00:00 11,2 11,2 13,6 13,8 13,0 5 3 13 7 N 1018,0 1,2 0 0,0
21.05.2019 09:00:00 10,1 10,1 8,8 13,9 13,0 4 2 10 5 ENE 1017,8 0,2 9 0,0
21.05.2019 08:00:00 7,9 7,9 7,3 13,9 13,0 3 2 9 5 E 1017,7 0,1 0 0,2
21.05.2019 07:00:00 7,3 7,3 5,3 14,0 13,0 0 0 5 3 N 1017,3 0,1 0 0,0
21.05.2019 06:00:00 7,5 7,4 4,8 14,1 13,0 2 1 9 5 SE 1016,8 0,1 0 0,0
21.05.2019 05:00:00 8,7 8,6 6,7 14,1 13,0 8 4 12 7 NW 1016,5 0,3 0 0,0
21.05.2019 04:00:00 8,9 8,6 5,9 14,2 13,0 5 3 12 6 WNW 1016,4 0,1 0 0,0
21.05.2019 03:00:00 9,8 9,2 6,9 14,2 13,0 9 5 16 9 NW 1016,3 2,7 0 0,0
21.05.2019 02:00:00 10,9 10,3 10,1 14,2 13,0 11 6 19 10 WNW 1016,3 6 0 0,0
21.05.2019 01:00:00 10,9 10,0 9,1 14,2 13,0 10 5 15 8 WNW 1016,4 6 0 0,0
21.05.2019 00:00:00 10,8 9,6 7,8 14,2 13,0 10 5 16 9 W 1016,4 9 0 0,0
20.05.2019 23:00:00 11,1 9,0 7,6 14,2 13,0 7 4 10 6 WNW 1016,1 13 0 0,0
20.05.2019 22:00:00 11,6 8,4 8,0 14,1 13,0 7 4 13 7 WNW 1015,3 18 0 0,0
20.05.2019 21:00:00 13,5 8,5 10,6 14,0 13,0 5 3 15 8 NW 1014,2 32 16 0,0
20.05.2019 20:00:00 15,9 9,1 16,3 13,9 13,0 7 4 16 9 WNW 1013,5 20 46 0,0
20.05.2019 19:00:00 14,7 10,1 15,6 13,9 13,0 6 4 18 10 WNW 1013,6 20 1 0,0
20.05.2019 18:00:00 14,7 9,1 15,9 13,8 13,0 8 5 22 12 NNE 1013,5 19 9 0,0
20.05.2019 17:00:00 14,5 9,5 16,8 13,8 13,0 14 7 23 12 N 1013,4 18 0 0,0
20.05.2019 16:00:00 14,3 9,5 17,1 13,7 13,0 8 5 17 9 W 1013,5 17 0 0,0
20.05.2019 15:00:00 13,4 9,8 16,2 13,7 13,0 8 5 17 9 W 1013,7 14 0 0,0
20.05.2019 14:00:00 13,2 9,6 15,5 13,7 13,0 11 6 19 11 WSW 1013,6 16 0 0,0
20.05.2019 13:00:00 12,4 9,8 14,8 13,7 13,0 8 4 20 11 W 1013,7 14 1 0,0
20.05.2019 12:00:00 12,3 9,7 13,0 13,6 13,0 12 6 21 11 W 1013,3 13 3 0,0
20.05.2019 11:00:00 11,1 9,5 13,4 13,7 13,0 11 6 21 11 W 1013,7 10 0 0,0
20.05.2019 10:00:00 10,2 9,9 10,9 13,7 13,0 11 6 20 11 WSW 1013,4 5 0 0,0
20.05.2019 09:00:00 9,8 9,8 9,9 13,8 13,0 9 5 17 9 W 1012,9 0,7 0 0,0
20.05.2019 08:00:00 9,6 9,6 9,5 13,8 13,0 8 5 19 10 WSW 1012,5 0,1 0 0,0
20.05.2019 07:00:00 9,3 9,3 9,2 13,8 13,0 10 6 23 13 WSW 1012,1 0,2 0 0,0
20.05.2019 06:00:00 9,2 9,2 9,2 13,8 13,0 12 7 19 11 W 1011,6 0,2 0 0,0
20.05.2019 05:00:00 9,2 9,2 9,3 13,9 13,0 11 6 23 12 WSW 1011,5 0,5 0 0,0
20.05.2019 04:00:00 9,4 9,3 9,4 13,9 13,0 10 6 23 13 W 1011,4 0,8 0 0,0
20.05.2019 03:00:00 9,6 9,5 9,5 13,9 13,0 15 8 29 16 W 1011,4 2,3 0 0,0
20.05.2019 02:00:00 9,8 9,5 9,4 13,9 13,0 15 8 25 13 W 1011,6 3,5 0 0,0

tt = temperature
td = dewpoint
tt 5cm = temperature 5cm
tt -20cm = temperature -20cm
tt -100cm = temperature -100cm
ff = wind speed
fx = gusts
dd = wind direction
ppp = reduced air pressure
vv = visibility
sd = sunshine duration
rr = precipitation

Next stations